Wind_Speed
36 35 35 35 33 33 33 33 32 31 30 28 26 23 20 17 15 15 16 15 15 16 18 21 21 22 21 18 16 15 15 17 20 21 18 19 13 10 15 15 12 10 9 7 7 7 3
36 36 36 35 34 33 33 33 33 32 30 28 27 25 23 21 17 17 17 16 16 18 19 21 22 22 21 18 18 17 16 16 16 19 17 15 9 10 8 9 4 6 2 5 4 2 9
36 37 37 36 35 34 33 32 31 31 31 30 28 26 25 22 21 18 16 17 18 18 20 22 23 23 21 18 20 19 18 17 15 14 15 13 15 13 9 8 5 4 7 6 6 4 5
35 37 38 37 35 34 33 32 31 31 30 30 30 28 26 24 22 19 18 19 19 20 21 23 24 24 23 23 21 19 17 16 15 15 14 14 13 12 10 5 5 9 6 4 3 8 11
31 34 36 37 36 34 33 33 32 31 30 30 29 29 28 27 25 22 20 21 21 21 22 22 24 25 25 26 22 20 18 16 14 14 13 13 14 13 12 12 13 17 10 4 4 8 7
26 31 34 35 35 36 36 35 33 33 33 32 31 31 30 30 29 26 24 23 23 22 21 23 23 24 25 25 24 22 19 17 15 14 13 13 13 10 11 17 16 19 11 2 4 3 7
21 25 30 33 33 33 34 35 35 35 35 35 34 33 32 31 30 29 28 24 23 22 22 23 23 25 23 22 24 23 21 19 18 16 14 14 12 12 19 23 20 20 12 7 5 6 9
17 19 22 26 29 31 33 34 34 35 36 36 36 35 34 33 31 30 30 28 26 24 23 24 23 25 23 23 22 22 21 19 18 18 16 13 12 18 21 22 21 16 15 14 10 14 11
18 19 20 21 22 24 25 27 29 31 34 37 37 37 37 35 33 33 34 30 29 25 25 23 24 24 24 24 24 23 21 20 20 17 17 17 19 22 22 20 20 15 19 21 22 19 19
23 22 22 21 22 21 25 26 26 27 27 30 36 38 39 39 36 37 34 30 28 26 27 22 22 21 23 21 21 24 22 21 19 17 18 21 20 21 21 17 14 14 21 23 28 28 26
25 26 26 26 26 25 25 25 25 25 25 23 27 33 39 40 41 38 33 30 33 28 29 25 27 24 23 22 24 20 23 21 19 20 20 21 22 23 18 16 19 17 21 21 14 14 14
31 27 26 26 26 32 30 28 27 26 23 24 23 25 35 39 41 39 35 36 33 31 31 28 29 27 24 21 23 23 23 23 23 24 22 23 24 23 20 17 13 14 19 11 12 11 10
13 17 21 27 27 26 31 35 31 29 26 23 22 23 27 33 39 39 40 40 37 36 29 29 27 25 24 24 24 25 24 21 23 22 20 22 23 20 14 14 13 13 19 13 13 13 17
15 16 18 21 23 28 29 26 34 30 28 28 25 22 24 28 31 36 43 43 42 32 25 25 26 29 28 23 25 27 26 23 24 22 20 23 21 13 7 5 9 13 17 16 15 15 20
22 23 23 22 23 26 30 30 32 33 30 30 30 26 25 25 28 33 38 42 41 31 28 36 27 29 31 32 25 27 28 24 23 21 23 21 19 21 21 14 12 12 11 14 16 16 16
25 27 29 29 29 28 30 31 33 32 31 30 31 34 29 27 28 30 32 35 36 33 32 35 28 24 22 13 24 25 25 21 21 24 22 19 23 19 20 14 15 7 11 13 14 15 15
26 28 32 34 34 34 32 32 32 31 31 31 33 33 34 32 30 29 24 29 33 38 38 37 34 29 24 24 23 23 23 18 20 22 22 23 24 18 21 17 10 7 11 14 14 16 19
30 31 27 30 35 36 36 34 33 32 31 32 34 34 35 35 31 26 20 23 35 41 43 39 42 36 31 27 25 25 19 11 13 19 22 27 25 24 23 23 17 12 9 9 18 22 22
28 26 26 27 33 32 33 33 33 33 32 32 33 34 35 35 31 28 23 23 37 46 48 43 49 41 40 36 29 27 21 21 16 18 21 30 31 29 25 22 22 15 13 14 15 18 20
21 20 20 20 24 29 29 31 30 31 32 33 33 34 38 37 37 33 28 27 36 41 51 49 48 46 42 40 36 33 29 31 27 24 23 23 29 33 27 24 24 25 21 20 22 24 20
20 20 20 18 21 24 27 27 27 29 31 34 34 37 34 35 37 35 32 31 33 37 45 50 48 46 42 39 44 38 36 37 40 36 31 28 30 31 30 33 34 33 30 29 26 23 27
18 19 19 18 18 24 24 25 25 28 30 31 34 33 30 30 34 35 36 36 37 38 44 43 50 47 51 42 46 42 43 43 41 39 37 36 35 34 32 30 26 26 27 25 27 29 31
18 19 19 17 17 20 25 24 25 25 28 30 30 31 30 32 32 35 41 42 41 41 44 42 41 46 49 48 47 45 43 43 44 40 39 41 35 34 30 29 30 31 19 25 35 33 31
18 18 18 16 16 17 22 25 25 25 28 29 31 31 33 34 33 34 34 42 40 42 45 41 40 45 45 45 50 45 46 43 45 42 38 40 34 33 32 33 38 31 29 32 34 33 32
17 16 16 15 14 14 17 25 26 26 27 28 30 30 30 35 34 34 35 32 45 44 46 44 44 41 43 41 45 49 47 46 44 39 41 41 34 35 36 36 37 32 33 39 38 38 36
18 16 18 19 16 14 14 17 27 27 28 28 29 30 30 33 33 34 35 35 39 47 53 48 49 41 37 40 42 46 46 47 50 47 41 42 36 36 37 36 35 27 31 38 41 38 35
23 21 19 18 18 16 14 15 18 29 29 30 29 28 29 32 31 33 36 37 37 39 47 52 50 45 38 37 41 41 42 40 41 39 37 38 40 40 40 40 37 30 37 36 36 37 35
28 23 22 20 19 18 16 14 17 19 30 30 31 29 29 31 29 31 35 36 35 33 33 34 35 44 41 39 38 38 39 39 42 43 43 44 44 44 42 42 40 34 40 38 37 40 38
31 28 23 21 20 19 18 16 14 18 22 30 31 31 30 32 31 31 34 35 31 30 31 32 35 34 29 31 38 37 37 37 38 36 39 41 44 43 43 42 43 38 39 36 39 38 37
Wind_Direction
217 216 217 219 218 219 219 218 219 222 222 226 226 227 225 222 226 223 217 213 210 207 204 199 194 190 184 182 178 175 175 178 179 182 180 196 203 199 208 192 165 143 162 166 151 165 106
219 217 217 219 220 221 220 220 220 222 225 227 225 230 228 221 228 221 220 214 212 207 208 203 198 194 186 189 185 181 182 182 181 184 190 211 208 224 237 240 285 138 87 134 134 137 72
221 219 218 220 220 221 222 223 224 225 225 226 228 230 229 228 231 230 225 219 216 211 208 206 201 198 191 191 192 187 186 187 184 188 180 186 203 214 236 259 265 52 130 164 176 238 101
223 221 219 220 221 223 224 224 226 227 227 228 229 230 231 233 233 233 229 223 221 216 210 208 205 201 198 197 195 197 192 193 192 194 188 189 198 199 202 213 155 109 134 174 32 8 298
226 223 222 222 222 223 225 226 226 228 229 230 230 231 230 232 234 233 226 226 223 220 215 211 210 207 200 202 206 200 202 201 201 206 202 199 199 196 178 153 151 145 153 177 65 47 312
227 225 224 224 225 226 227 228 228 229 230 231 232 232 231 232 233 233 228 223 227 226 222 219 214 211 207 206 208 210 210 208 211 213 210 211 207 196 170 161 187 168 161 143 157 165 274
224 226 226 226 227 229 231 232 233 233 233 232 231 231 232 231 232 235 233 228 227 228 226 222 219 216 210 211 213 213 215 214 213 217 218 218 214 195 184 194 207 203 186 140 219 208 277
223 223 223 225 229 232 235 237 237 238 238 236 233 231 231 232 232 234 234 235 228 223 226 226 222 222 213 213 217 220 219 219 216 217 220 218 196 205 213 216 218 214 200 190 205 244 251
228 227 226 226 226 228 229 233 236 239 240 240 238 234 231 231 230 232 233 232 232 224 226 230 223 223 217 213 216 219 222 220 219 217 215 217 212 216 221 224 238 226 208 209 214 232 255
236 234 231 230 232 234 234 234 233 236 237 238 237 235 233 230 230 231 233 232 233 227 225 229 225 222 224 218 220 218 219 219 219 214 220 220 222 228 234 231 233 208 215 219 230 241 242
243 241 241 240 239 237 236 237 233 234 234 239 236 233 231 230 229 229 231 230 230 222 225 224 227 216 223 214 216 215 221 215 215 217 217 224 228 229 227 236 228 209 232 237 261 253 237
243 248 247 247 247 242 239 235 236 235 236 235 236 235 226 226 228 227 227 230 230 228 222 224 222 228 225 225 224 221 218 215 211 214 217 229 229 229 224 223 230 236 252 257 256 258 261
241 240 250 249 248 246 243 240 237 235 233 232 235 233 228 224 224 223 224 227 227 226 223 225 228 223 229 226 232 228 219 218 224 224 218 229 233 240 239 227 236 232 243 239 248 261 261
254 253 253 246 243 241 239 242 230 233 234 233 230 232 230 226 221 220 222 223 225 220 214 222 226 225 222 217 229 234 230 220 224 221 214 218 220 207 202 213 236 231 243 252 257 243 250
254 256 254 251 249 243 239 239 232 234 233 231 228 226 229 226 219 220 222 224 221 216 204 216 223 223 221 218 220 229 231 221 223 221 223 224 211 199 199 184 241 237 242 253 256 265 270
268 260 254 251 249 246 242 240 239 235 232 231 226 225 229 228 226 224 226 225 218 212 211 213 202 213 208 195 214 224 226 220 219 222 218 211 213 212 207 200 222 224 263 263 271 277 269
282 274 267 259 251 245 243 239 238 236 233 229 226 226 228 229 231 231 236 226 206 206 210 206 191 196 200 207 207 206 220 217 210 212 217 207 208 205 210 212 220 264 268 252 248 254 269
295 292 280 262 252 247 243 239 234 233 231 227 225 224 224 227 231 232 241 224 201 199 209 205 200 193 194 209 218 219 186 203 215 206 209 205 208 191 195 196 217 211 222 224 249 262 273
294 292 282 262 248 240 240 243 235 229 227 226 225 221 225 225 226 227 226 209 192 195 207 202 205 197 202 204 204 229 201 208 229 197 190 200 205 207 210 215 211 224 243 259 263 267 283
297 301 290 272 251 243 239 240 241 230 224 223 223 222 219 221 219 219 216 204 192 200 208 202 199 202 205 209 206 206 208 210 216 216 210 213 216 220 217 216 221 231 232 242 251 265 272
295 296 302 283 254 245 243 238 238 233 224 220 221 223 223 223 220 215 208 203 204 207 213 204 201 203 205 198 201 204 206 214 216 214 210 218 223 228 226 224 228 240 252 255 265 276 273
293 297 302 295 265 242 241 241 232 229 226 222 219 222 223 225 222 216 211 204 204 209 222 214 205 205 210 205 204 204 206 209 216 216 213 216 221 231 233 239 244 248 255 264 271 270 270
285 293 296 299 278 252 239 239 233 225 223 224 220 218 217 218 220 220 212 208 207 210 220 222 207 213 219 207 208 211 214 216 220 225 228 229 227 236 235 246 248 249 252 257 260 268 272
277 286 287 295 290 264 243 235 234 226 220 220 220 218 215 215 216 217 220 213 210 211 222 224 217 216 219 215 213 218 219 224 232 228 230 232 233 235 242 251 248 248 257 263 265 268 269
274 279 278 286 292 279 252 236 232 229 222 219 222 218 215 220 216 218 218 218 214 214 220 228 229 224 219 218 217 221 224 226 227 228 233 235 245 254 243 243 251 249 246 254 261 267 272
266 275 276 280 284 281 261 245 231 228 227 222 223 222 217 220 216 217 219 218 220 218 221 221 229 224 222 221 218 219 222 226 229 235 238 244 246 243 249 253 248 239 243 250 260 273 275
264 269 279 278 278 275 271 251 243 227 227 226 223 225 220 221 219 218 219 221 222 222 227 227 228 232 223 218 224 228 227 229 234 239 246 250 252 252 251 253 251 240 243 250 258 265 269
258 264 269 276 279 270 270 264 245 241 226 225 224 223 221 219 217 219 219 220 227 229 233 239 241 235 237 234 231 232 234 232 234 238 241 244 247 248 253 250 250 244 248 250 257 264 267
254 258 263 269 273 268 266 260 262 246 236 226 225 223 222 221 214 218 220 222 219 225 227 225 226 231 229 236 233 234 234 234 237 237 239 241 244 247 250 250 252 249 251 249 258 266 269
Height
5843 5847 5851 5856 5859 5863 5867 5871 5875 5878 5882 5886 5889 5891 5894 5896 5899 5901 5902 5904 5906 5907 5910 5913 5916 5919 5922 5925 5926 5928 5930 5931 5933 5934 5935 5935 5936 5938 5939 5942 5943 5942 5944 5946 5947 5948 5949
5838 5842 5846 5851 5855 5859 5863 5866 5870 5874 5878 5882 5885 5888 5891 5893 5896 5898 5900 5901 5903 5906 5908 5911 5914 5918 5922 5924 5925 5927 5930 5931 5932 5933 5935 5937 5939 5939 5941 5943 5944 5942 5945 5946 5946 5946 5947
5832 5837 5842 5846 5850 5854 5858 5862 5865 5869 5873 5877 5881 5883 5886 5890 5893 5895 5897 5899 5901 5904 5906 5909 5912 5916 5920 5923 5924 5926 5928 5930 5931 5934 5935 5937 5939 5940 5941 5943 5945 5945 5947 5946 5947 5947 5947
5826 5831 5836 5840 5845 5849 5852 5856 5860 5865 5868 5872 5876 5879 5882 5885 5888 5891 5894 5897 5899 5901 5903 5906 5910 5913 5917 5920 5922 5925 5927 5929 5930 5933 5934 5935 5938 5939 5941 5943 5944 5945 5946 5945 5947 5947 5947
5821 5826 5829 5834 5839 5843 5847 5851 5854 5859 5862 5866 5870 5874 5877 5880 5884 5888 5891 5893 5895 5898 5901 5904 5907 5911 5914 5918 5920 5923 5924 5927 5928 5931 5933 5934 5937 5938 5939 5940 5943 5944 5944 5943 5944 5942 5946
5817 5820 5824 5828 5833 5837 5841 5845 5848 5852 5856 5860 5864 5868 5872 5876 5880 5883 5887 5889 5892 5895 5898 5902 5904 5909 5912 5916 5918 5920 5923 5925 5926 5929 5931 5933 5934 5937 5939 5939 5940 5942 5941 5943 5943 5943 5944
5813 5815 5819 5823 5827 5831 5835 5838 5842 5846 5850 5854 5858 5862 5866 5870 5874 5877 5881 5886 5890 5894 5895 5898 5902 5904 5908 5912 5914 5918 5920 5922 5925 5927 5928 5930 5934 5936 5935 5935 5937 5939 5940 5943 5941 5940 5942
5810 5813 5815 5818 5822 5825 5829 5832 5836 5839 5843 5847 5851 5856 5860 5864 5868 5872 5875 5880 5883 5888 5891 5894 5898 5901 5905 5908 5911 5914 5917 5920 5922 5923 5925 5929 5931 5931 5932 5933 5935 5937 5938 5940 5942 5939 5939
5807 5809 5812 5815 5817 5820 5823 5826 5829 5833 5836 5840 5844 5848 5853 5857 5862 5866 5868 5875 5879 5884 5888 5891 5894 5897 5901 5904 5906 5910 5913 5915 5918 5920 5922 5924 5927 5926 5928 5932 5933 5935 5937 5937 5937 5937 5938
5803 5806 5808 5810 5813 5815 5818 5820 5823 5826 5829 5832 5836 5840 5845 5850 5856 5859 5864 5871 5874 5880 5884 5889 5891 5895 5897 5901 5904 5905 5908 5912 5915 5917 5919 5920 5923 5924 5927 5930 5931 5933 5932 5933 5933 5935 5937
5799 5801 5803 5805 5807 5810 5812 5815 5818 5820 5823 5825 5828 5832 5837 5843 5848 5853 5860 5865 5867 5874 5877 5884 5885 5889 5892 5897 5899 5902 5903 5907 5910 5913 5916 5918 5919 5921 5924 5927 5926 5929 5929 5930 5933 5933 5934
5793 5795 5797 5799 5801 5803 5806 5808 5812 5815 5817 5820 5822 5825 5829 5834 5839 5847 5854 5856 5863 5869 5872 5876 5881 5885 5888 5891 5895 5897 5900 5903 5905 5908 5910 5914 5915 5917 5920 5922 5923 5926 5926 5930 5930 5930 5931
5788 5789 5790 5792 5794 5796 5799 5802 5805 5809 5812 5814 5817 5820 5823 5826 5831 5839 5845 5848 5854 5858 5869 5872 5875 5880 5883 5887 5889 5892 5896 5899 5902 5905 5908 5911 5912 5915 5919 5920 5921 5923 5924 5925 5927 5927 5926
5783 5784 5785 5786 5787 5789 5792 5793 5798 5802 5805 5809 5812 5815 5817 5819 5825 5831 5834 5840 5846 5857 5864 5865 5867 5873 5877 5881 5884 5887 5890 5895 5898 5901 5904 5905 5909 5913 5914 5917 5918 5920 5921 5922 5923 5924 5923
5777 5778 5779 5780 5781 5783 5785 5787 5790 5795 5798 5802 5806 5809 5811 5816 5818 5822 5827 5831 5841 5852 5856 5856 5862 5865 5870 5874 5879 5881 5885 5890 5893 5897 5900 5903 5906 5906 5907 5910 5914 5916 5918 5919 5920 5920 5921
5769 5770 5771 5773 5775 5776 5778 5780 5783 5787 5790 5794 5798 5803 5807 5810 5812 5816 5820 5827 5837 5845 5850 5852 5858 5862 5866 5869 5873 5876 5880 5886 5890 5892 5896 5900 5904 5904 5906 5908 5910 5913 5915 5915 5916 5917 5917
5761 5761 5762 5764 5766 5768 5770 5772 5775 5779 5782 5787 5792 5796 5800 5802 5806 5811 5816 5822 5830 5836 5842 5848 5852 5854 5857 5861 5866 5870 5876 5881 5884 5888 5891 5896 5899 5902 5902 5905 5908 5910 5911 5912 5913 5913 5911
5751 5750 5751 5753 5755 5758 5761 5764 5767 5771 5775 5779 5783 5789 5792 5797 5802 5806 5811 5814 5822 5828 5833 5840 5847 5849 5852 5857 5863 5866 5871 5875 5879 5884 5887 5892 5894 5897 5899 5901 5905 5906 5907 5908 5908 5910 5907
5745 5744 5743 5742 5744 5748 5752 5755 5759 5762 5767 5771 5775 5781 5785 5790 5796 5800 5804 5807 5811 5817 5821 5832 5838 5843 5847 5853 5860 5863 5866 5869 5875 5879 5881 5887 5888 5893 5897 5900 5900 5901 5902 5903 5904 5904 5904
5740 5739 5737 5735 5736 5740 5743 5747 5751 5754 5758 5763 5769 5772 5776 5781 5785 5792 5798 5803 5808 5811 5814 5823 5832 5837 5840 5848 5854 5857 5861 5865 5869 5874 5879 5882 5885 5888 5893 5896 5896 5896 5899 5901 5900 5900 5900
5735 5734 5732 5730 5730 5732 5736 5739 5743 5747 5751 5756 5761 5764 5770 5777 5781 5786 5792 5798 5803 5806 5809 5819 5827 5832 5834 5843 5848 5851 5855 5858 5863 5867 5872 5877 5880 5884 5887 5891 5892 5894 5896 5897 5896 5896 5894
5731 5729 5728 5725 5724 5726 5729 5732 5736 5740 5745 5749 5754 5759 5765 5770 5775 5781 5787 5792 5796 5801 5804 5814 5822 5828 5829 5838 5841 5845 5848 5852 5857 5864 5869 5872 5875 5879 5883 5885 5887 5889 5892 5893 5891 5889 5888
5726 5725 5723 5721 5719 5720 5722 5726 5729 5733 5739 5742 5746 5750 5756 5761 5767 5773 5777 5783 5789 5794 5798 5804 5816 5817 5822 5830 5835 5840 5843 5848 5855 5860 5865 5868 5871 5874 5878 5880 5882 5882 5888 5885 5880 5881 5883
5720 5719 5719 5717 5715 5714 5716 5719 5723 5727 5731 5735 5738 5743 5748 5753 5759 5765 5772 5778 5785 5788 5790 5797 5806 5810 5815 5822 5830 5834 5839 5845 5850 5856 5859 5863 5866 5869 5872 5876 5873 5880 5878 5876 5875 5875 5877
5715 5714 5714 5713 5711 5710 5710 5713 5716 5720 5724 5728 5731 5737 5741 5745 5753 5760 5765 5772 5776 5781 5782 5788 5794 5803 5810 5818 5823 5827 5832 5839 5844 5847 5852 5857 5861 5862 5863 5866 5866 5872 5870 5867 5866 5869 5871
5710 5709 5709 5708 5708 5707 5707 5707 5710 5713 5717 5721 5725 5730 5736 5740 5748 5753 5758 5765 5768 5775 5774 5781 5785 5793 5804 5813 5817 5819 5825 5831 5836 5840 5844 5847 5852 5854 5854 5855 5856 5864 5863 5861 5861 5862 5866
5704 5704 5704 5703 5703 5703 5703 5703 5704 5707 5710 5715 5720 5725 5730 5735 5741 5746 5751 5756 5762 5769 5770 5775 5781 5787 5798 5804 5807 5813 5819 5825 5828 5833 5838 5839 5840 5842 5845 5845 5847 5855 5854 5853 5855 5859 5858
5697 5698 5698 5698 5698 5698 5698 5699 5699 5701 5704 5708 5712 5718 5723 5727 5734 5739 5743 5748 5753 5760 5767 5772 5777 5783 5790 5796 5800 5805 5811 5816 5820 5823 5826 5829 5831 5833 5834 5836 5838 5844 5844 5847 5848 5847 5851
5689 5691 5692 5692 5692 5693 5693 5694 5695 5696 5698 5701 5706 5710 5716 5720 5727 5731 5736 5741 5748 5752 5757 5762 5767 5771 5780 5785 5790 5796 5802 5808 5811 5816 5818 5820 5820 5826 5827 5830 5828 5833 5834 5838 5840 5843 5845